TimeCST,TemperatureF,Dew PointF,Humidity,Sea Level PressureIn,VisibilityMPH,Wind Direction,Wind SpeedMPH,Gust SpeedMPH,PrecipitationIn,Events,Conditions,WindDirDegrees,DateUTC
12:53 AM,9.0,5.0,84,30.37,10.0,SE,4.6,-,N/A,,Clear,140,2013-03-07 06:53:00
1:53 AM,10.9,7.0,84,30.38,7.0,ESE,4.6,-,N/A,,Clear,120,2013-03-07 07:53:00
2:53 AM,10.9,6.1,81,30.35,8.0,SE,6.9,-,N/A,,Clear,130,2013-03-07 08:53:00
3:53 AM,12.0,8.1,84,30.32,8.0,SE,10.4,-,N/A,,Clear,130,2013-03-07 09:53:00
4:48 AM,12.2,8.6,85,30.25,10.0,SE,10.4,-,N/A,,Scattered Clouds,140,2013-03-07 10:48:00
4:53 AM,12.9,8.1,81,30.30,9.0,SE,9.2,-,N/A,,Mostly Cloudy,130,2013-03-07 10:53:00
5:26 AM,12.2,8.6,85,30.25,9.0,SSE,11.5,-,N/A,,Scattered Clouds,150,2013-03-07 11:26:00
5:53 AM,12.9,8.1,81,30.31,7.0,SSE,9.2,-,N/A,,Partly Cloudy,150,2013-03-07 11:53:00
6:12 AM,12.2,8.6,85,30.25,4.0,SSE,9.2,-,N/A,,Haze,150,2013-03-07 12:12:00
6:22 AM,12.2,8.6,85,30.25,6.0,SSE,11.5,-,N/A,,Partly Cloudy,150,2013-03-07 12:22:00
6:53 AM,14.0,9.0,80,30.32,7.0,SSE,10.4,-,N/A,,Clear,150,2013-03-07 12:53:00
7:53 AM,15.1,10.0,80,30.32,8.0,SE,9.2,-,N/A,,Clear,140,2013-03-07 13:53:00
8:53 AM,16.0,10.9,81,30.31,9.0,SE,12.7,25.3,N/A,,Partly Cloudy,140,2013-03-07 14:53:00
9:53 AM,18.0,10.9,74,30.31,10.0,SSE,15.0,-,N/A,,Mostly Cloudy,150,2013-03-07 15:53:00
10:33 AM,19.4,14.0,80,30.24,8.0,SSE,18.4,27.6,N/A,,Mostly Cloudy,150,2013-03-07 16:33:00
10:53 AM,21.0,15.1,78,30.29,8.0,SSE,16.1,27.6,N/A,,Scattered Clouds,150,2013-03-07 16:53:00
11:53 AM,24.1,17.1,75,30.28,7.0,SSE,20.7,31.1,0.00,,Overcast,150,2013-03-07 17:53:00
12:53 PM,26.1,17.1,69,30.27,6.0,SE,26.5,34.5,0.00,,Haze,140,2013-03-07 18:53:00
1:53 PM,27.0,17.1,66,30.23,6.0,SSE,23.0,34.5,0.00,Snow,Light Snow,150,2013-03-07 19:53:00
2:53 PM,28.9,18.0,64,30.21,10.0,SE,20.7,27.6,0.00,,Clear,130,2013-03-07 20:53:00
3:53 PM,30.0,17.1,59,30.19,10.0,SE,21.9,34.5,N/A,,Clear,140,2013-03-07 21:53:00
4:53 PM,28.9,16.0,58,30.22,10.0,SSE,18.4,24.2,0.00,,Clear,160,2013-03-07 22:53:00
5:53 PM,27.0,16.0,63,30.23,10.0,South,12.7,-,N/A,,Clear,170,2013-03-07 23:53:00
6:53 PM,26.1,15.1,63,30.25,10.0,SSE,15.0,23.0,N/A,,Clear,160,2013-03-08 00:53:00
7:53 PM,25.0,16.0,69,30.25,10.0,SSE,12.7,-,N/A,,Mostly Cloudy,160,2013-03-08 01:53:00
8:53 PM,26.1,16.0,66,30.25,10.0,SSE,12.7,-,N/A,,Overcast,160,2013-03-08 02:53:00
9:28 PM,24.8,15.8,69,30.19,10.0,SSE,12.7,-,N/A,,Overcast,160,2013-03-08 03:28:00
9:53 PM,25.0,16.0,69,30.25,10.0,SSE,11.5,-,N/A,,Overcast,160,2013-03-08 03:53:00
10:53 PM,25.0,16.0,69,30.26,10.0,South,15.0,-,N/A,,Overcast,170,2013-03-08 04:53:00
11:53 PM,25.0,17.1,72,30.25,10.0,South,16.1,-,N/A,,Overcast,170,2013-03-08 05:53:00